SCP
0 0 0 0 0 0 0 0 0 0 0 0 0 0 0 0 0 0 0 0 0 0 -0 -0 0 0 0 0 0 0 1 1 0 0 0 0 0 0 0 0 0 0 0 0 0 0 0 0 0
0 0 0 0 0 0 0 0 0 0 0 0 0 0 0 0 0 0 0 0 0 0 0 0 0 0 0 0 0 0 1 1 0 0 0 0 0 0 0 0 0 0 0 0 0 0 0 0 0
0 0 0 0 0 0 0 0 0 0 0 0 0 0 0 0 0 0 0 0 0 0 0 0 0 0 0 0 0 0 0 0 0 0 0 0 0 0 0 0 0 0 0 0 0 0 0 0 0
0 0 0 0 0 0 0 0 0 0 0 0 0 0 0 0 0 0 0 0 0 0 0 1 1 1 1 1 1 0 0 0 0 0 0 0 0 0 0 0 0 0 0 0 0 0 0 0 0
0 0 0 0 0 0 0 0 0 0 0 0 0 0 0 0 0 0 0 0 0 1 1 1 1 1 1 1 1 1 0 0 0 0 0 1 0 0 0 0 1 1 1 0 0 0 0 0 0
0 0 0 0 0 0 0 0 0 0 0 0 0 0 0 0 0 0 0 0 0 1 1 1 1 1 1 1 1 1 1 1 0 1 1 1 1 0 0 1 1 1 1 1 1 1 1 1 0
0 0 0 0 0 0 0 0 0 0 0 0 0 0 0 0 0 0 0 0 0 1 1 1 1 1 1 1 1 1 1 1 1 1 1 1 1 1 1 1 1 1 1 1 1 1 1 1 1
0 0 0 0 0 0 0 0 0 0 0 0 0 0 0 0 0 0 0 0 0 0 1 1 1 1 1 1 1 0 0 0 0 1 1 1 1 1 1 1 1 1 1 1 1 1 1 1 1
0 0 0 0 0 0 0 0 0 0 0 0 0 0 0 0 0 0 0 0 0 0 0 0 0 0 0 0 0 0 0 0 0 0 1 1 1 0 0 1 1 1 1 1 1 0 1 1 1
0 0 0 0 0 0 0 0 0 0 0 0 0 0 0 0 0 0 0 0 0 0 -0 0 0 0 0 0 0 0 0 0 0 0 0 0 0 0 0 0 0 1 1 1 1 1 1 1 0
0 0 0 0 0 0 0 0 0 0 0 0 0 0 0 0 0 0 0 0 0 0 -0 0 0 0 0 0 0 0 0 0 0 0 0 0 0 0 0 0 0 0 1 1 1 1 1 0 0
0 0 0 0 0 0 0 0 0 0 0 0 0 0 0 0 0 0 0 0 0 0 0 0 0 0 0 0 0 0 0 0 0 0 0 0 0 0 0 0 0 0 0 0 0 0 0 0 0
0 0 0 0 0 0 0 0 0 0 0 0 0 0 0 0 0 0 0 0 0 0 0 0 0 0 0 0 0 0 0 0 0 0 0 0 0 0 0 0 0 0 0 0 0 0 0 0 0
0 0 0 0 0 0 0 0 0 0 0 0 0 0 0 0 0 0 0 0 0 0 0 0 0 0 0 0 0 0 0 0 0 0 0 0 0 0 0 0 0 0 0 0 0 0 0 0 0
0 0 0 0 0 0 0 0 0 0 0 0 0 0 0 0 0 0 0 0 0 0 0 0 0 0 0 0 0 0 0 0 0 0 0 0 0 0 0 0 0 0 0 0 0 0 0 0 0
0 0 0 0 0 0 0 0 0 0 0 0 0 0 0 0 0 0 0 0 0 0 0 0 0 0 0 0 0 0 0 0 0 0 0 0 0 0 0 0 0 0 0 0 0 0 0 0 0
0 0 0 0 0 0 0 0 0 0 0 0 0 0 0 0 0 0 0 0 0 0 0 0 0 0 0 0 0 0 0 0 0 0 0 0 0 0 0 0 0 0 0 -0 0 0 0 0 0
0 0 0 0 0 0 0 0 0 0 0 0 0 0 0 0 0 0 0 0 0 0 0 0 0 0 0 0 0 0 0 0 0 0 0 0 0 0 0 0 0 0 0 0 0 0 0 0 0
0 0 0 0 0 0 0 0 0 0 0 0 0 0 0 0 0 0 0 0 0 0 0 0 0 0 0 0 0 0 0 0 0 0 0 0 0 0 0 0 0 0 0 0 0 0 0 0 0
0 0 0 0 0 0 0 0 0 0 0 0 0 0 0 0 0 0 0 0 0 0 0 0 0 0 0 0 0 0 0 0 0 0 0 0 0 0 0 0 0 0 0 0 0 0 0 0 0
0 0 0 0 0 0 0 0 0 0 0 0 0 0 0 0 0 0 0 0 0 0 0 0 0 0 0 0 0 0 0 0 0 0 0 0 0 0 0 0 0 0 0 0 0 0 0 0 0
0 0 0 0 0 0 0 0 0 0 0 0 0 0 0 0 0 0 0 0 0 0 0 0 0 0 0 0 0 0 0 0 0 0 0 0 0 0 0 0 0 0 0 0 0 0 0 0 0
0 0 0 0 0 0 0 0 0 0 0 0 0 0 0 0 0 0 0 0 0 0 0 0 0 0 0 0 0 0 0 0 0 0 0 0 0 0 0 0 0 0 0 0 0 0 0 0 0
0 0 0 0 0 0 0 0 0 0 0 0 0 0 0 0 0 0 0 0 0 -0 -0 -0 -0 0 0 0 0 -0 -0 -0 -0 -0 -0 -0 -0 -0 0 0 0 0 0 0 0 0 0 0 0
0 0 0 0 0 0 0 0 0 0 0 0 0 0 0 0 0 0 0 0 -0 -0 -0 -0 0 0 0 0 0 -0 -0 -0 -0 -0 -0 -0 -0 -0 0 0 0 0 0 0 0 0 0 0 0
0 0 0 0 0 0 0 0 0 0 0 0 0 0 0 0 0 0 0 -0 -0 0 0 0 0 0 0 0 0 0 -0 -0 -0 -0 -0 -0 0 0 0 0 0 0 0 0 0 0 0 0 0
0 0 0 0 0 0 0 0 0 0 0 0 0 0 0 0 0 0 0 0 0 0 0 0 0 0 0 0 0 0 0 -0 -0 -0 -0 0 0 0 0 0 0 0 0 0 0 0 0 0 0
0 0 0 0 0 0 0 0 0 0 0 0 0 0 0 0 0 0 0 0 0 0 0 0 0 0 0 0 0 0 0 0 0 0 0 0 0 0 0 0 0 0 0 0 0 0 0 0 0
0 0 0 0 0 0 0 0 0 0 0 0 0 0 0 0 0 0 0 0 0 0 0 0 0 0 0 0 0 0 0 0 0 0 0 0 0 0 0 0 0 0 0 0 0 0 0 0 0
0 0 0 0 0 0 0 0 0 0 0 0 0 0 0 0 0 0 0 0 0 0 0 -0 0 0 0 0 0 0 0 0 0 0 0 0 0 0 0 0 0 0 0 0 0 0 0 0 0
Wind_Speed
8 5 3 3 5 4 3 3 2 2 2 1 2 7 5 3 2 2 2 3 6 7 7 9 13 14 13 13 11 10 10 9 8 7 6 5 5 3 4 6 7 8 8 7 6 5 6 6 5
4 3 4 4 4 4 3 3 3 3 1 2 5 5 5 2 1 3 2 7 8 9 8 8 13 14 14 13 12 12 11 10 9 8 6 4 4 4 4 3 7 9 8 8 7 6 5 6 5
3 3 3 4 3 2 1 2 2 2 4 4 3 4 3 2 1 1 2 7 8 7 8 10 15 15 14 14 13 12 12 10 9 9 8 7 5 4 5 5 4 6 7 7 8 7 6 6 6
3 4 4 4 2 2 1 1 2 5 6 6 3 4 3 1 1 1 1 6 6 5 4 7 12 12 11 11 11 11 11 10 9 8 7 8 7 6 6 7 5 5 5 6 7 7 6 6 6
4 4 4 4 3 4 4 3 5 7 7 6 5 3 3 3 3 5 4 2 5 4 3 3 7 8 9 9 10 10 10 10 9 8 8 8 7 6 7 7 7 5 4 4 5 6 5 6 7
4 4 4 3 4 5 4 5 4 5 4 4 3 2 3 4 5 5 6 5 5 5 4 2 3 4 5 5 6 8 8 8 7 8 7 6 9 9 8 6 6 5 5 5 5 5 5 6 7
3 4 2 0 2 4 7 6 4 4 6 6 3 3 3 5 4 2 5 5 6 6 5 4 2 0 2 3 4 5 6 6 6 7 7 5 6 8 10 6 5 6 7 7 6 5 5 6 7
4 4 2 2 1 2 6 4 2 5 5 6 7 7 6 10 9 5 4 7 8 8 7 6 5 3 2 2 3 4 5 5 6 6 5 5 4 5 5 5 6 7 8 9 8 6 6 6 6
4 5 2 3 2 1 4 5 6 3 7 11 10 8 7 13 18 17 11 9 8 9 8 7 7 5 3 2 3 4 5 5 5 4 4 3 2 3 4 4 8 9 9 9 9 9 9 7 6
4 3 2 1 1 1 1 4 5 9 12 10 10 13 15 22 24 22 19 14 11 10 9 9 8 7 7 4 2 1 2 2 3 3 3 3 4 4 5 6 10 10 10 11 11 11 10 7 4
3 3 3 2 1 1 3 8 9 10 10 6 6 11 18 23 23 21 20 19 17 15 16 13 9 8 8 5 4 3 2 2 2 4 4 4 3 4 4 3 5 5 6 5 6 6 5 4 4
2 4 2 1 2 2 5 7 13 17 8 6 8 12 20 22 20 18 18 17 16 17 17 17 16 14 11 7 4 4 3 3 1 3 4 2 2 3 2 2 3 3 3 4 3 4 5 5 6
2 2 1 1 1 6 14 11 17 14 9 9 15 21 21 19 16 15 14 17 17 18 18 17 16 15 13 10 7 5 4 3 3 2 3 2 2 3 3 3 3 3 3 3 3 3 4 5 7
1 3 3 1 6 6 14 8 12 9 7 14 19 19 17 17 15 16 18 18 17 16 16 16 18 17 15 12 11 9 7 6 4 4 4 4 3 3 4 4 3 3 3 4 4 4 4 5 5
2 3 5 3 5 5 10 10 11 6 10 16 13 13 15 14 15 13 11 12 14 14 15 16 16 16 16 14 13 10 9 9 7 6 5 5 4 3 3 4 4 4 4 5 4 5 4 4 4
4 5 5 5 4 2 5 6 7 4 14 13 10 9 12 11 11 9 8 8 9 11 13 14 13 15 14 13 12 11 11 10 9 9 9 8 5 5 4 3 4 5 4 4 4 5 4 4 4
7 3 3 5 9 5 7 7 6 5 14 12 9 8 10 11 14 12 10 8 8 7 9 11 13 13 12 11 10 10 11 11 10 10 10 12 10 6 4 4 5 5 4 4 5 5 4 4 4
2 2 3 2 5 8 11 10 9 6 12 10 9 10 11 16 15 14 12 9 8 8 8 8 8 9 11 10 9 9 9 9 10 11 13 16 14 11 6 5 5 5 4 5 4 5 4 4 4
1 2 3 1 3 7 12 12 6 5 10 10 11 13 14 13 13 14 13 13 12 13 11 11 11 10 8 6 6 8 9 9 9 9 14 15 16 16 12 7 6 5 4 5 5 4 5 5 3
3 2 3 5 6 9 14 11 5 5 10 11 12 11 11 13 14 15 15 16 17 18 18 16 14 12 9 4 3 3 3 4 6 8 11 13 16 16 13 12 9 6 5 5 5 4 3 3 4
3 1 2 5 4 6 13 6 4 6 11 13 12 11 14 15 15 15 15 14 14 16 15 15 16 16 13 7 4 4 4 4 6 11 12 15 16 17 17 15 12 7 5 5 6 5 5 4 3
3 4 5 4 2 3 4 2 2 5 11 12 9 9 11 14 15 13 15 15 15 14 13 14 13 14 12 8 5 4 4 5 7 9 11 14 15 16 17 17 13 9 5 5 5 5 4 5 3
6 10 6 2 4 1 1 4 1 3 8 8 8 9 12 15 13 12 13 14 15 15 12 13 14 14 13 10 9 7 6 7 8 9 11 13 14 15 17 17 14 11 7 6 5 5 5 4 4
8 6 2 3 3 0 0 4 0 3 3 4 6 9 12 13 12 10 13 14 15 14 13 14 15 14 13 11 11 11 12 13 13 13 12 11 11 12 15 17 16 14 10 7 7 7 7 5 4
8 7 6 7 5 3 1 5 3 3 1 2 5 7 10 12 11 11 15 16 15 12 13 14 14 14 13 13 13 12 12 13 13 13 12 13 12 12 14 17 17 16 11 9 6 6 6 6 4
4 5 4 2 5 7 4 4 5 3 1 3 4 7 12 14 10 12 15 16 16 16 15 16 16 15 16 16 16 14 13 10 10 11 13 12 12 13 17 17 18 19 12 9 7 4 6 6 5
4 3 1 2 3 4 1 4 2 1 3 6 8 11 11 11 10 12 14 15 15 15 15 17 18 19 18 17 16 16 15 14 14 15 15 13 14 14 17 18 18 17 6 5 6 5 8 7 5
2 2 3 4 4 7 3 0 3 9 9 9 9 11 10 11 11 12 13 15 15 16 17 16 17 18 18 18 16 14 15 15 15 14 15 16 16 17 18 18 18 16 9 6 4 2 3 9 7
4 4 3 1 1 3 6 2 3 2 4 7 9 10 11 12 13 14 14 15 16 15 15 16 16 17 17 17 16 16 15 16 15 13 15 16 16 17 18 19 17 15 10 6 5 6 4 7 7
3 3 2 2 4 3 4 3 4 1 4 6 7 8 8 9 11 11 13 14 14 17 17 17 15 15 16 16 16 15 15 16 15 14 16 17 15 17 18 17 11 5 2 2 2 3 4 5 7
Wind_Direction
340 348 46 54 51 38 344 325 309 48 43 2 53 93 110 103 104 143 218 168 144 142 167 174 175 176 176 177 176 174 173 170 167 175 178 182 195 200 229 209 205 210 209 208 207 202 196 200 181
347 4 42 62 73 54 348 314 17 15 24 32 70 84 83 56 82 146 171 168 152 152 168 178 181 179 179 180 182 183 179 179 179 182 180 179 194 210 244 250 223 208 209 211 213 210 200 210 200
357 56 60 60 68 105 191 281 347 353 10 41 43 71 77 15 22 175 228 156 150 158 169 181 181 181 183 184 187 189 188 191 191 192 189 195 205 228 236 242 223 203 204 204 208 208 203 208 207
30 38 45 64 -0 323 281 292 55 20 3 19 31 49 51 355 245 189 153 147 150 160 167 177 179 181 185 190 194 195 196 198 201 197 208 207 199 224 237 216 182 180 194 194 198 203 201 207 216
51 62 47 45 344 326 323 338 62 55 12 353 31 43 61 5 356 38 45 102 132 112 117 158 175 181 188 195 200 202 205 211 205 205 210 211 196 212 232 202 174 173 200 205 200 199 205 217 224
50 61 61 24 322 324 339 351 39 50 10 355 47 71 45 3 12 25 44 54 101 107 106 115 162 178 191 206 214 214 215 219 219 221 204 208 223 208 227 216 177 171 206 226 228 225 222 227 233
85 77 95 327 324 10 343 338 45 34 16 1 9 63 24 351 337 41 85 85 88 80 69 47 24 125 187 218 237 236 231 224 229 235 218 198 241 224 213 215 202 201 215 224 235 245 246 242 242
106 91 44 21 37 32 325 344 22 42 23 5 33 35 6 339 342 359 51 62 54 51 49 35 15 356 326 284 247 230 237 233 237 241 226 211 232 258 231 211 204 208 215 222 222 226 245 254 255
82 68 43 9 32 340 329 11 355 30 52 43 38 40 355 10 27 29 20 29 39 36 32 37 33 13 339 275 253 228 232 233 240 239 227 214 205 243 243 234 221 223 218 218 218 216 220 229 243
85 103 212 254 208 195 10 36 343 45 48 33 24 25 25 37 39 38 28 21 21 18 17 21 15 17 20 10 355 294 300 265 242 236 225 208 199 222 236 230 233 235 219 215 217 223 222 220 228
134 176 222 287 222 176 54 42 21 88 52 18 37 33 36 43 38 36 32 28 19 14 9 3 359 15 24 19 22 6 332 280 246 260 256 240 215 222 235 225 228 217 219 223 229 232 226 218 223
183 236 212 273 344 40 86 95 63 71 78 59 63 58 50 47 42 36 30 25 21 20 13 8 7 8 6 8 12 354 334 335 315 282 289 281 272 259 259 237 234 224 227 232 230 227 219 221 228
194 273 266 272 60 74 77 83 89 70 71 68 62 56 52 50 45 40 36 30 23 19 11 6 11 10 3 2 354 348 343 337 322 305 309 293 273 272 268 267 271 263 254 253 260 252 238 226 226
292 278 292 344 72 81 94 85 78 66 70 64 57 55 52 49 39 35 31 27 21 16 9 4 12 6 2 3 358 351 344 333 327 323 312 298 268 262 256 253 259 261 254 250 246 242 236 232 231
307 345 8 31 118 138 97 49 62 80 74 63 55 54 53 46 40 36 29 29 24 18 10 8 9 6 5 2 357 354 352 346 335 324 316 307 294 279 272 265 266 263 267 267 260 254 244 251 252
19 31 23 1 23 51 94 84 65 64 81 66 54 50 51 42 36 29 24 21 17 17 13 6 5 6 5 2 359 355 353 351 347 337 322 305 283 267 259 253 256 260 261 258 254 248 243 238 243
22 22 0 346 15 16 79 116 86 63 80 68 50 43 42 34 28 16 14 8 1 2 10 10 7 4 2 358 357 359 357 351 344 342 336 323 305 275 243 241 252 259 255 250 242 238 213 226 238
323 326 300 299 12 51 84 87 64 39 70 62 47 38 34 32 18 5 1 359 354 349 354 357 0 357 358 355 351 355 0 354 347 345 344 337 330 310 280 262 265 264 255 259 248 237 211 213 222
243 268 295 299 29 49 90 90 67 40 58 51 41 35 33 23 6 4 359 353 353 351 348 344 347 342 342 343 342 346 353 347 342 342 337 340 337 331 318 285 262 255 241 248 243 225 221 220 193
23 16 344 317 8 76 96 90 73 55 58 55 52 40 24 13 5 359 356 355 353 352 353 347 337 327 321 317 303 302 304 314 317 329 332 338 335 327 318 305 279 249 232 238 237 227 200 201 177
351 165 245 268 318 116 125 106 106 71 63 54 43 31 23 9 357 356 357 355 356 2 1 353 346 343 336 325 316 307 314 321 334 340 339 338 332 328 324 316 297 261 227 217 207 210 203 186 190
302 254 268 256 267 212 178 148 136 82 59 43 26 20 10 3 356 352 357 0 6 1 352 348 345 341 338 334 327 332 357 348 338 333 327 324 325 324 321 318 309 277 238 222 204 195 189 165 180
288 296 292 210 177 257 350 111 208 68 40 12 3 10 9 2 355 357 4 2 355 348 351 345 342 338 335 333 342 359 358 342 327 327 322 320 321 320 318 318 319 302 271 228 203 191 170 165 172
311 327 18 73 93 286 132 122 221 38 41 352 356 4 356 353 350 4 5 356 349 349 354 347 346 341 342 354 4 2 346 337 333 332 324 321 318 315 316 316 314 304 293 256 200 181 169 169 167
8 12 21 7 3 279 55 79 118 118 100 13 11 357 345 351 355 6 359 353 344 344 352 345 344 344 358 356 352 348 342 338 335 332 327 321 316 314 314 313 310 296 273 273 238 164 151 150 153
355 49 62 330 287 294 356 116 160 168 135 21 22 353 355 356 360 1 354 350 341 342 346 343 344 351 351 350 349 345 345 339 333 329 324 319 314 309 307 306 304 292 250 224 234 180 141 132 126
359 40 130 224 283 286 238 114 141 153 15 13 2 353 354 350 354 350 350 350 344 337 347 352 350 351 353 351 345 344 342 338 334 330 326 320 314 307 302 301 296 290 268 223 207 198 144 123 106
63 59 12 357 320 302 310 80 306 0 355 346 339 343 346 349 348 348 355 347 350 355 355 352 353 353 349 344 342 340 338 336 330 326 321 317 312 309 306 301 290 279 253 199 172 135 122 118 114
4 28 42 285 230 278 297 319 60 22 326 315 325 344 348 346 347 350 351 346 347 350 351 349 352 351 348 343 340 340 339 333 325 321 321 320 312 309 305 299 294 273 241 216 171 150 151 113 102
71 70 63 2 304 283 265 264 109 194 269 301 327 349 341 341 338 348 347 344 349 352 349 347 349 354 345 340 339 340 337 333 331 332 333 330 323 317 306 303 324 315 237 173 165 143 128 111 107